RH
4 3 3 3 4 6 6 7 8 5 4 4 4 4 3 3 3 2 2 2 5 8 18 45 60 62 61 54 49 49 50 49 88 100 100 100 100 100
3 4 6 10 14 18 20 22 23 22 18 15 12 9 7 6 5 5 3 3 3 3 8 26 66 63 54 58 56 50 49 52 53 63 90 99 99 100
8 12 17 21 24 28 30 32 34 38 40 25 24 21 16 10 8 8 7 5 4 3 3 4 20 64 66 47 50 52 47 48 52 53 54 54 83 95
17 20 22 26 27 30 34 38 44 46 60 53 25 28 26 17 13 16 15 10 10 7 5 4 5 11 60 68 42 38 46 45 45 50 52 52 51 49
21 22 23 27 30 37 43 47 49 56 70 77 49 37 33 23 24 19 22 33 27 18 15 11 18 16 16 68 70 47 38 34 40 42 46 51 51 50
24 28 32 37 41 45 46 46 49 58 83 100 98 69 50 51 48 42 53 52 54 59 45 27 18 25 53 34 69 63 50 42 33 31 36 42 48 51
30 31 32 35 37 40 43 39 46 55 68 90 96 88 91 79 69 73 78 58 55 56 49 33 29 25 33 43 47 57 54 49 44 38 31 29 37 42
27 44 51 56 57 55 53 52 54 69 85 99 100 99 86 83 39 39 66 70 67 57 73 50 29 38 74 50 59 58 63 61 56 48 40 32 25 30
49 54 54 61 65 63 60 59 57 64 88 99 99 96 100 71 34 40 48 63 71 67 73 64 36 37 52 91 91 70 41 37 46 51 44 42 35 25
54 61 65 64 66 65 62 58 61 74 97 100 99 96 89 36 36 42 46 45 51 60 70 66 41 34 36 25 27 40 40 34 27 26 32 33 40 36
58 68 74 71 72 74 72 67 73 80 97 99 98 97 96 52 38 32 33 35 34 63 63 66 39 39 56 35 25 25 35 43 44 28 22 20 22 34
64 72 79 82 80 82 100 100 100 91 98 100 97 96 96 96 75 66 49 44 52 65 63 68 57 87 74 68 22 20 24 61 46 35 28 22 18 16
68 74 79 83 83 85 100 98 97 95 94 98 98 97 98 95 87 75 71 69 78 69 74 93 70 82 75 42 23 20 20 22 31 36 36 29 19 15
74 78 81 85 87 100 100 96 97 97 96 98 98 97 98 99 96 87 79 91 96 100 92 92 58 43 54 34 23 21 20 16 15 19 39 56 80 45
83 87 83 82 88 96 100 100 99 88 89 87 93 90 92 98 98 85 76 81 85 81 93 98 92 62 60 35 24 22 20 20 16 14 21 63 100 82
77 78 84 87 90 88 83 95 97 90 88 82 90 86 90 95 96 79 68 73 78 70 67 90 99 97 84 72 58 41 35 31 26 20 15 14 47 95
76 83 86 88 85 79 76 91 100 100 99 92 92 86 83 94 89 80 82 75 64 57 54 59 72 89 84 75 62 50 43 38 34 30 22 18 13 35
79 83 89 92 92 93 87 86 100 100 100 98 99 96 85 86 87 88 90 79 61 57 54 51 46 53 48 37 30 29 29 33 33 30 26 23 18 13
89 89 90 90 92 95 96 96 95 92 98 100 97 96 99 98 95 99 99 86 74 69 62 63 68 68 55 40 40 36 27 23 22 25 25 23 20 14
91 93 94 94 95 95 96 98 98 99 94 94 100 99 100 97 94 92 95 99 92 88 82 84 77 73 63 52 54 42 35 26 20 17 21 20 20 17
91 94 95 96 97 97 97 98 98 98 95 89 90 100 99 100 100 100 100 100 98 95 95 92 92 100 93 83 59 43 40 39 35 28 23 22 21 16
93 94 95 96 97 98 98 99 97 97 96 87 87 88 95 100 100 99 100 100 100 100 100 100 99 100 96 89 74 57 45 37 38 42 37 30 22 15
93 94 97 97 97 97 96 97 99 99 98 99 97 95 93 96 100 100 99 99 100 97 99 100 100 99 97 95 92 87 64 40 34 33 32 28 24 22
Wind_Speed
55 55 55 55 53 51 50 49 49 56 55 51 50 50 51 51 51 51 59 61 55 50 47 47 47 46 47 48 46 44 44 43 50 52 46 42 40 36
55 55 52 49 47 44 43 43 43 47 52 47 46 45 46 47 45 44 45 55 58 60 50 48 48 48 48 48 48 46 45 44 44 46 52 54 47 41
52 49 47 43 43 43 43 44 45 46 49 50 49 48 48 47 46 45 45 39 45 52 58 49 49 50 49 49 50 47 46 45 45 45 44 43 45 41
48 46 45 45 46 46 47 47 47 48 47 50 50 51 49 46 45 45 44 43 39 41 45 50 45 49 51 49 49 49 47 47 46 45 44 45 44 43
49 50 50 50 51 50 50 51 50 50 49 48 53 51 49 46 43 41 41 41 38 39 39 40 40 40 48 51 50 48 47 44 47 48 46 45 44 44
51 52 52 52 52 51 51 51 50 50 47 44 47 48 45 41 39 39 38 37 36 29 33 34 37 36 36 46 48 49 48 46 45 45 46 46 45 43
51 51 51 51 49 49 49 48 46 46 47 46 48 46 43 40 39 37 36 35 36 32 31 31 31 35 34 36 45 48 51 50 47 46 45 45 44 43
48 48 50 49 46 45 44 43 43 40 41 42 47 46 45 41 41 39 35 35 36 30 31 31 29 34 30 33 37 44 49 51 49 47 47 45 43 44
49 50 49 46 43 42 42 42 42 40 36 38 43 45 43 38 39 39 35 34 34 32 31 31 27 31 29 31 31 36 41 45 49 50 48 48 46 44
50 50 47 44 41 40 40 40 40 37 33 35 39 41 39 38 36 34 34 34 35 33 29 32 27 30 30 25 25 31 36 38 42 46 49 49 49 48
51 47 44 42 39 38 38 37 37 34 32 34 38 39 35 35 34 34 34 35 37 33 27 29 28 28 30 27 24 23 27 33 38 43 45 47 49 51
50 45 42 38 37 36 34 35 35 34 34 33 33 33 33 32 32 33 34 35 36 35 27 26 26 25 28 25 22 23 23 25 30 37 41 45 47 49
47 44 39 34 31 31 29 33 34 33 33 33 33 33 31 32 31 30 31 32 33 34 28 24 25 25 25 27 19 19 22 23 24 28 32 37 41 44
41 40 37 35 34 33 33 33 33 32 31 30 32 32 31 31 30 27 27 29 28 30 28 26 27 25 24 25 23 18 17 19 21 22 23 23 25 34
36 35 34 33 34 37 35 33 33 32 31 29 30 32 30 29 27 27 27 30 30 31 31 29 26 26 25 24 23 21 19 18 16 19 21 28 30 32
35 34 31 31 31 31 33 31 31 28 28 32 29 27 29 29 28 26 27 27 30 29 29 27 27 29 31 30 28 25 22 20 20 19 19 22 26 30
37 34 32 30 30 30 29 23 23 25 27 26 27 29 28 27 27 25 25 26 28 28 27 27 28 28 28 33 34 31 30 26 25 26 24 24 22 25
33 32 30 28 29 27 26 23 24 27 26 24 23 24 27 29 29 28 27 28 28 27 27 27 28 28 29 32 31 31 32 31 29 28 29 29 24 24
31 30 29 27 26 25 24 23 25 26 25 24 25 24 24 26 28 28 28 29 28 28 29 29 30 31 32 33 31 30 33 34 34 32 31 31 29 24
26 28 27 26 26 25 24 23 22 22 26 26 25 22 24 26 26 28 30 30 31 29 29 29 30 30 32 31 31 29 32 35 36 37 36 34 32 29
26 25 26 26 25 25 25 24 23 22 20 25 25 22 20 19 20 22 26 28 26 23 24 26 25 26 28 31 34 30 29 32 34 33 34 36 34 30
26 26 26 27 25 25 26 25 23 21 20 18 22 26 23 23 22 20 20 21 23 21 23 27 25 25 27 29 30 29 28 29 31 31 32 33 30 28
26 26 27 28 28 26 25 25 24 21 20 18 18 21 22 24 24 24 22 21 20 21 22 23 23 25 24 27 26 26 24 25 27 29 30 29 27 25
Wind_Direction
305 304 303 302 301 299 298 298 297 296 294 294 294 291 287 283 278 269 269 269 270 265 257 253 250 248 246 248 247 246 246 245 243 241 237 232 229 234
305 305 304 304 302 299 298 297 294 294 294 296 296 296 295 292 288 284 271 271 273 271 265 256 250 248 245 245 246 245 243 244 244 246 248 241 244 244
307 306 304 303 298 295 294 293 293 294 293 296 297 297 295 293 293 291 289 280 275 272 273 264 256 251 247 245 245 244 243 241 241 242 244 249 257 252
306 304 302 300 297 295 294 294 293 293 290 291 291 291 291 291 291 291 290 287 282 276 275 275 264 252 249 247 245 245 244 242 240 240 241 241 242 241
306 305 304 301 298 296 294 292 291 289 286 284 286 287 287 289 290 289 291 291 286 283 281 278 278 263 247 244 244 243 245 245 239 238 238 239 239 238
305 303 301 299 297 295 293 292 289 285 283 282 281 284 286 286 287 289 290 289 290 284 283 282 280 273 257 245 243 241 241 243 242 241 239 237 237 238
303 303 300 298 297 294 292 292 290 285 279 274 275 279 281 282 284 288 287 288 285 286 285 281 275 268 263 250 243 239 240 240 241 242 242 239 238 237
304 305 302 298 295 293 293 292 292 288 281 273 271 272 276 279 283 284 283 280 284 280 284 280 273 264 267 248 242 240 239 240 243 244 243 241 240 237
304 307 303 300 298 297 295 294 293 291 278 272 269 269 273 278 281 280 278 274 279 282 279 275 273 272 269 257 255 247 241 241 242 243 243 241 239 239
308 308 305 303 301 298 295 293 292 290 277 269 266 272 272 273 275 278 276 275 271 275 279 277 270 271 271 266 256 246 242 239 239 240 242 241 239 237
309 308 304 300 298 297 297 295 293 286 275 273 273 275 271 269 272 275 274 274 271 273 272 275 268 269 269 268 263 255 249 245 242 238 237 240 238 236
307 305 302 299 299 299 299 293 289 286 279 274 276 276 273 269 266 268 272 270 269 270 267 270 267 263 263 269 260 252 249 248 245 242 240 237 238 235
306 305 300 297 299 299 292 292 292 291 283 274 272 275 274 269 271 273 270 267 265 264 265 265 266 265 267 268 257 248 247 249 250 247 244 242 240 238
307 303 302 299 298 298 296 295 292 288 283 278 274 271 272 272 271 271 269 263 260 261 256 251 258 262 261 262 263 244 242 247 252 253 254 239 241 246
310 307 304 301 299 298 294 282 290 288 285 281 277 271 270 272 272 267 267 261 260 258 264 252 253 258 260 262 261 253 248 240 250 258 255 236 242 242
317 314 309 307 301 299 298 282 284 285 288 283 277 280 271 269 269 270 270 260 261 263 262 260 256 257 262 264 263 259 259 260 257 255 264 258 261 245
324 320 315 309 310 310 307 281 289 286 288 289 278 274 271 268 266 270 270 265 261 261 259 257 261 265 262 260 260 261 263 261 262 260 260 262 261 256
329 328 323 315 313 309 310 292 276 286 289 291 284 277 268 266 270 269 267 265 263 261 261 261 263 263 265 266 265 261 259 260 257 254 256 258 262 257
327 328 328 327 322 318 314 308 283 270 274 277 279 283 274 268 265 265 266 265 264 262 261 262 262 263 263 260 262 262 261 258 257 255 254 258 261 261
328 328 329 331 332 331 325 317 313 290 266 263 273 281 272 273 271 266 266 267 270 269 266 264 265 264 263 263 262 252 254 254 252 249 250 254 260 261
340 340 339 336 334 336 333 328 320 315 293 261 259 267 273 274 276 274 268 267 270 268 270 271 267 266 263 262 263 260 257 256 255 252 248 250 255 255
349 352 350 347 343 339 338 336 329 320 314 289 263 258 263 270 272 277 274 271 259 255 263 272 275 270 270 269 268 263 254 250 249 249 248 249 252 248
353 355 355 353 351 345 341 341 338 328 318 311 291 271 259 261 264 268 272 266 265 262 263 264 265 268 267 274 268 261 252 244 245 248 248 250 246 227